Location: Wien
(48.2082°N, 16.3738°E)
Time: 11:44:37
(UTC+02:00)

DOVE 4 - Pass Details

Date: 28 March 2019
Orbit: 587 x 804 km, 97.7° (Epoch: 24 April)

Event Time Altitude Azimuth Distance (km) Brightness Sun altitude
Rises 04:40:18 0° 359° (N) 2,919 ? -10.9°
Reaches altitude 10° 04:43:14 10° 338° (NNW) 1,976 ? -10.4°
Maximum altitude 04:45:48 16° 301° (WNW) 1,599 ? -10.0°
Enters shadow 04:47:44 12° 270° (W) 1,795 ? -9.7°
